Clines Corner, NM

5:52 PM MDT on May 27, 2017 (GMT -0600)
Clines Corner

Weather History for KCQC - January, 2013

Change the Weather History Date:

Friday, January 25, 2013

  Actual Average (KSAF) Record (KSAF)
Temperature  
Mean Temperature 43 °F -  
Max Temperature 54 °F 30 °F 55 °F (1999)
Min Temperature 32 °F 7 °F 7 °F (1978)
Degree Days  
Heating Degree Days 22    
Moisture  
Dew Point 31 °F    
Average Humidity 69    
Maximum Humidity 85    
Minimum Humidity 45    
Precipitation  
Precipitation 0.00 in - - ()
Sea Level Pressure  
Sea Level Pressure 30.16 in    
Wind  
Wind Speed 14 mph (WNW)    
Max Wind Speed 23 mph    
Max Gust Speed 30 mph    
Visibility 10 miles    
Events      
Averages and records for this station are not official NWS values.
T = Trace of Precipitation, MM = Missing Value Source: NWS Daily Summary

Daily Weather History Graph

Daily Weather History Graph

Search for Another Location

Airport or City:

Trip Planner

Search our weather history database for the weather conditions in past years. The results will help you decide how hot, cold, wet, or windy it might be!

Date:

Astronomy

Jan. 25, 2013 Rise Set
Actual Time 7:05 AM MST 5:24 PM MST
Civil Twilight 6:38 AM MST 5:51 PM MST
Nautical Twilight 6:08 AM MST 6:22 PM MST
Astronomical Twilight 5:38 AM MST 6:52 PM MST
Moon 4:24 PM MST (1/25) 5:46 AM MST (1/25)
Length of Visible Light 11h 12m
Length of Day
10h 18m
Waxing Gibbous, 98% of the Moon is Illuminated
Jan 25
Waxing Gibbous
Jan 26
Full
Feb 3
Last Quarter
Feb 10
New
Feb 17
First Quarter

Hourly Weather History & Observations

Time (MST) Temp. Windchill Dew Point Humidity Pressure Visibility Wind Dir Wind Speed Gust Speed Precip Events Conditions
12:53 AM 37.9 °F 27.1 °F 28.0 °F 68% 30.09 in 10.0 mi WNW 23.0 mph 29.9 mph N/A   Clear
1:53 AM 37.9 °F 29.2 °F 28.0 °F 68% 30.14 in 10.0 mi NW 15.0 mph 25.3 mph N/A   Clear
2:53 AM 37.0 °F 27.7 °F 28.9 °F 73% 30.12 in 10.0 mi NW 16.1 mph - N/A   Clear
3:53 AM 37.0 °F 31.0 °F 27.0 °F 67% 30.13 in 10.0 mi NW 8.1 mph - N/A   Clear
4:53 AM 32.0 °F 24.2 °F 25.0 °F 75% 30.17 in 10.0 mi NW 9.2 mph - N/A   Clear
5:53 AM 34.0 °F 28.8 °F 26.1 °F 73% 30.17 in 10.0 mi NW 5.8 mph - N/A   Clear
6:53 AM 32.0 °F 24.2 °F 26.1 °F 79% 30.22 in 10.0 mi NW 9.2 mph - N/A   Clear
7:53 AM 34.0 °F 25.5 °F 28.9 °F 82% 30.23 in 10.0 mi WNW 11.5 mph - N/A   Clear
8:53 AM 37.0 °F 28.5 °F 30.0 °F 76% 30.24 in 10.0 mi WNW 13.8 mph - N/A   Clear
9:53 AM 42.1 °F 34.2 °F 32.0 °F 67% 30.21 in 10.0 mi NW 16.1 mph - N/A   Mostly Cloudy
10:53 AM 45.0 °F 37.6 °F 33.1 °F 63% 30.20 in 10.0 mi WNW 17.3 mph - N/A   Overcast
11:53 AM 46.0 °F 40.2 °F 32.0 °F 58% 30.21 in 10.0 mi West 12.7 mph - N/A   Overcast
12:53 PM 48.9 °F - 33.1 °F 54% 30.15 in 10.0 mi WNW 11.5 mph - N/A   Clear
1:53 PM 53.1 °F - 33.1 °F 47% 30.10 in 10.0 mi WNW 12.7 mph 21.9 mph N/A   Clear
2:53 PM 54.0 °F - 33.1 °F 45% 30.09 in 10.0 mi WNW 11.5 mph - N/A   Clear
3:53 PM 52.0 °F - 34.0 °F 50% 30.10 in 10.0 mi WNW 17.3 mph 23.0 mph N/A   Clear
4:53 PM 48.9 °F - 34.0 °F 56% 30.13 in 10.0 mi West 15.0 mph - N/A   Clear
5:53 PM 42.1 °F 36.1 °F 32.0 °F 67% 30.17 in 10.0 mi West 10.4 mph - N/A   Clear
6:53 PM 39.9 °F 33.4 °F 32.0 °F 73% 30.21 in 10.0 mi West 10.4 mph - N/A   Clear
7:53 PM 37.9 °F 30.5 °F 32.0 °F 79% 30.21 in 10.0 mi West 11.5 mph - N/A   Clear
8:53 PM 37.0 °F 30.4 °F 32.0 °F 82% 30.18 in 10.0 mi West 9.2 mph - N/A   Clear
9:53 PM 37.0 °F 29.3 °F 32.0 °F 82% 30.16 in 10.0 mi West 11.5 mph - N/A   Clear
10:53 PM 37.0 °F 29.8 °F 32.0 °F 82% 30.14 in 10.0 mi West 10.4 mph - N/A   Clear
11:53 PM 35.1 °F 27.4 °F 30.9 °F 85% 30.12 in 10.0 mi WNW 10.4 mph - N/A   Clear